COSMOS 2251 DEB, 35476

Orbit data source: Space-Track

COSMOS 2251 DEB, 35476 is space debris in LEO originally from a launch on Wed, 16 Jun 1993 UTC launched from the Plesetsk Missile And Space Complex (PKMTR). The debris from Iridium 33, an American commercial communications satellite, has been tracked extensively since its accidental collision with the defunct Russian satellite Cosmos 2251 in 2009. This event, occurring at high speed in low Earth orbit (LEO), generated thousands of pieces of space debris, significantly increasing the risk of further collisions. The Iridium 33 debris cloud has impacted space traffic management and orbital debris mitigation strategies, making it a subject of ongoing study in space situational awareness.

Loading next visibility...
Identifier
35476, 1993-036ALW
Orbit
LEO
Country
Flag of CISCIS
Related business
Manufacturer
Unknown
Mission
Spacecraft
Bus & Motor
Unknown
Mass
Unknown
Launch date (UTC)
1993-06-16 (33 years ago)
Launch vehicle
Unknown
Launch site
Plesetsk Missile And Space Complex (PKMTR)
Object type
Payload
Rocket body
Debris
Shape & HBR
Unknown shape, 0.1 m
Radar Cross Section
Small (<0.1 m²)

Expand to show TLE details & history
Last TLE update: 4 hours ago

TLE from 4 hours ago
0 COSMOS 2251 DEB
1 35476U 93036ALW 26265.63262640  .00006478  00000-0  81780-3 0  9998
2 35476  73.9738 220.2029 0013604 157.3850  17.0170 14.82050251920852
Epoch: 2026-09-22T15:10Z
TLE epoch observation values (Epoch: 2026-09-22T15:10:58.920Z)
Latitude
5.25603°
Longitude
169.45615°
Altitude
615.886 km
Speed
7.557 km/s
True Right ascension
02h 34m 47s
True Declination
5° 13' 27"
Sunlit
Object was in full shadow at epoch
Visualization orbit readout
Latitude
Unknown
Longitude
Unknown
Altitude
Unknown
Speed
Unknown
Apparent Right ascension
Unknown
Apparent Declination
Unknown
Sunlit
N/A
Visualization observer readout
Local Sidereal Time
11:53:25
Azimuth
Unknown
Elevation
Unknown
Doppler factor
Unknown
Orbital elements
Apogee altitude
629.96 km
Perigee altitude
610.918 km
Semi-major axis
6,998.576 km
Eccentricity
0.00136
Inclination
73.9738°
RAAN
220.2029°
Arg. of periapsis
157.385°
True anomaly
17.0627°
Mean anomaly
17.017°
Eccentric anomaly
17.03984°
Mean motion
3.70705 °/min
Orbital period
97.11 mins
BSTAR
0.0008178

Documentation

Showing up to 5 results
|